Location: Biltmore Gardens
(41.6070°N, 83.4666°W)
Time: 15:20:17
(UTC+00:00)

EO 1 Del DPAF - Pass Details

Date: 14 July 2020
Orbit: 512 x 518 km, 98.0° (Epoch: 13 August)

Event Time Altitude Azimuth Distance (km) Brightness Sun altitude
Rises 04:34:18 0° 11° (N) 2,637 7.8 -25.0°
Reaches altitude 10° 04:36:24 10° 9° (N) 1,745 6.7 -25.1°
Enters shadow 04:39:21 52° 354° (N) 645 3.9 -25.3°
